Regional Weather Roundup
Issued by NWS

Current Version | Previous Version | Text Only | Print | Product List | Glossary On
Versions: 1 2 3 4 5 6 7 8 9 10 11 12 13 14 15 16 17 18 19 20 21 22 23 24 25 26 27 28 29 30 31 32 33 34 35 36 37 38 39 40 41 42 43 44 45 46 47 48 49 50
332
ASUS43 KIND 191609
RWRIN

WEATHER ROUNDUP FOR INDIANA
NATIONAL WEATHER SERVICE INDIANAPOLIS IN
1200 PM EDT MON APR 19 2021

NOTE: "FAIR" INDICATES FEW OR NO CLOUDS BELOW 12,000 FEET WITH NO
SIGNIFICANT WEATHER AND/OR OBSTRUCTIONS TO VISIBILITY.

* - STATION DOES NOT REPORT WEATHER SUCH AS PRECIPITATION OR FOG.

+ - STATION NOT QUALITY CONTROLLED BY THE NATIONAL WEATHER SERVICE.
    USE DATA WITH CAUTION...ESPECIALLY DEWPOINT AND RELATIVE
    HUMIDITY OBSERVATIONS.

INZ001>003-010>013-019-020-191700-
NORTHWEST INDIANA

CITY           SKY/WX    TMP DP  RH WIND       PRES   REMARKS
GARY /AIRPORT/ LGT RAIN  54  37  54 W23       29.84R
KNOX *+        CLOUDY    57  34  41 W15       29.82S
LA PORTE +     CLOUDY    53  37  53 W10       29.83R
MICHIGAN CITY+ CLOUDY    52  34  50 W7        29.84R
MONTICELLO +   MOSUNNY   62  31  30 W20G29    29.84F
RENSSELAER +   CLOUDY    61  36  39 W18G26    29.84S
VALPARAISO     CLOUDY    54  37  52 W13       29.83R

$$

LMZ046-743>745-191700-
SOUTHERN LAKE MICHIGAN

STATION/POSITION TIME  TEMP    WIND        PRES    WAVE
                       AIR SEA DIR/SP/G            HT
                 (UTC) (F)     (DEG/KT/KT) (MB)    (FT)
BURNS HARBOR     1540   50     290/  6/  7 1010.5R
MICHIGAN CITY    1540   48     260/ 12/ 14 1011.1R

$$

INZ004-005-014>016-021>024-191700-
NORTH CENTRAL INDIANA

CITY           SKY/WX    TMP DP  RH WIND       PRES   REMARKS
GOSHEN         PTSUNNY   60  36  40 W18G26    29.79F
LOGANSPORT +   MOSUNNY   63  34  34 W17       29.86F
PERU/GRISSOM   SUNNY     62  36  38 W16G26    29.84F
PLYMOUTH *+    PTSUNNY   59  32  36 W13G20    29.80F
ROCHESTER +    SUNNY     63  32  31 W12G23    29.83F
SOUTH BEND     CLOUDY    54  36  50 W13       29.82S
WARSAW +       PTSUNNY   61  34  36 SW13G20   29.81F

$$

INZ006>009-017-018-025>027-191700-
NORTHEAST INDIANA

CITY           SKY/WX    TMP DP  RH WIND       PRES   REMARKS
ANGOLA *+      MOSUNNY   61  30  31 W21G35    29.78F
AUBURN +       SUNNY     61  34  36 SW10G24   29.82F
FORT WAYNE     MOSUNNY   62  31  31 W24G31    29.84F
HUNTINGTON +   SUNNY     61  29  29 W13G25    29.84F
KENDALLVILLE + FAIR      61  33  36 W22G28    29.79F

$$

INZ028-029-035-036-043>045-051>053-191700-
WEST CENTRAL INDIANA

CITY           SKY/WX    TMP DP  RH WIND       PRES   REMARKS
CRAWFORDSVL +  SUNNY     60  33  36 W9G17     29.90S
GREENCASTLE +  FAIR      60  36  41 SW14G22   29.92S
LAFAYETTE      SUNNY     65  33  30 W17G25    29.86F
TERRE HAUTE    SUNNY     62  37  39 W15G23    29.93S

$$

INZ030>032-037>040-046>048-054>057-064-065-191700-
CENTRAL INDIANA

CITY           SKY/WX    TMP DP  RH WIND       PRES   REMARKS
COLUMBUS       SUNNY     59  39  47 SW14      29.93S
FRANKFORT +    SUNNY     61  30  31 W18G25    29.88S
GREENWOOD *+   SUNNY     60  40  46 W13G21    29.92S
INDIANAPOLIS   MOSUNNY   62  38  40 SW17      29.90S
-EAGLE CREEK   SUNNY     61  36  39 W14G23    29.89S
KOKOMO +       SUNNY     62  32  32 W20G25    29.87F
MARION +       SUNNY     60  33  35 W18G29    29.87F
MT COMFORT *+  SUNNY     61  45  55 W14       29.90S
SHELBYVILLE    SUNNY     63  37  38 W16G23    29.90S

$$

INZ033-034-041-042-049-050-058-059-191700-
EAST CENTRAL INDIANA

CITY           SKY/WX    TMP DP  RH WIND       PRES   REMARKS
MUNCIE         MOSUNNY   64  36  35 W16G26    29.87S
PORTLAND +     FAIR      61  30  31 W16G25    29.87S
RICHMOND +     FAIR      57  45  62 W15       29.90F

$$

INZ060-061-067>069-081>083-085>088-191700-
SOUTHWEST INDIANA

CITY           SKY/WX    TMP DP  RH WIND       PRES   REMARKS
EVANSVILLE     SUNNY     61  42  49 SW12      29.99S
HUNTINGBURG +  SUNNY     60  45  57 W10       29.97F
WASHINGTON +   SUNNY     60  42  50 W8        29.96S

$$

INZ062-063-066-070>080-084-089>092-191700-
SOUTH CENTRAL AND SOUTHEAST INDIANA

CITY           SKY/WX    TMP DP  RH WIND       PRES   REMARKS
BATESVILLE +   SUNNY     61  41  48 SW9       29.91F
BLOOMINGTON    SUNNY     62  37  39 W12G21    29.93S
FRENCH LICK *+ SUNNY     59  36  41 W8        29.96F
JEFFERSONVL +  FAIR      62  45  52 W5        29.95F
MADISON *+     SUNNY     61  43  51 SW3       29.96S

$$





USA.gov is the U.S. government's official web portal to all federal, state and local government web resources and services.